When you browse on this site, cookies collect data to enhance your experience and personalize the content and advertising you see.
Visit our Privacy Policy to learn more. By continuing to use the site, you agree to this use of cookies and data.
  • Em Portugal
  • Lista de países
  • Para 7 dias
  • Temperatura da água
  • Mapas de satélite
  • Mapa do tempo
  • Widgets de tempo
  • user-avatar
    Iniciar Sessão

    Previsão horária em Berezova

    Hoje, 26 Abril, Sexta-feira

    Tempo Temperatura Precipitação Vento Pressão Humidade
    00:00 -1°C° 0 mm 2 m/s 752 mmHg 83%
    01:00 -2°C° 0 mm 2 m/s 752 mmHg 84%
    02:00 0°C° 0 mm 1 m/s 752 mmHg 83%
    03:00 0°C° 0 mm 1 m/s 752 mmHg 83%
    04:00 0°C° 0 mm 1 m/s 752 mmHg 82%
    05:00 +1°C° 0 mm 1 m/s 751 mmHg 75%
    06:00 +2°C° 0 mm 1 m/s 751 mmHg 69%
    07:00 +3°C° 0 mm 1 m/s 751 mmHg 62%
    08:00 +4°C° 0 mm 2 m/s 751 mmHg 58%
    09:00 +4°C° 0 mm 3 m/s 751 mmHg 53%
    10:00 +6°C° 0 mm 4 m/s 750 mmHg 49%
    11:00 +6°C° 0.4 mm 5 m/s 750 mmHg 50%
    12:00 +6°C° 0.4 mm 5 m/s 750 mmHg 52%
    13:00 +6°C° 0.4 mm 5 m/s 749 mmHg 54%
    14:00 +6°C° 0.2 mm 5 m/s 749 mmHg 52%
    15:00 +7°C° 0.2 mm 5 m/s 749 mmHg 51%
    16:00 +7°C° 0.2 mm 6 m/s 749 mmHg 50%
    17:00 +5°C° 0 mm 5 m/s 749 mmHg 54%
    18:00 +4°C° 0 mm 4 m/s 749 mmHg 57%
    19:00 +3°C° 0 mm 3 m/s 749 mmHg 61%
    20:00 +2°C° 0 mm 3 m/s 749 mmHg 65%
    21:00 +2°C° 0 mm 2 m/s 750 mmHg 69%
    22:00 +1°C° 0 mm 2 m/s 750 mmHg 73%
    23:00 +1°C° 0 mm 1 m/s 750 mmHg 75%

    Amanhã, 27 Abril, Sábado

    Tempo Temperatura Precipitação Vento Pressão Humidade
    00:00 +1°C° 0 mm 1 m/s 750 mmHg 77%
    01:00 0°C° 0 mm 1 m/s 750 mmHg 79%
    02:00 0°C° 0 mm 1 m/s 750 mmHg 79%
    03:00 0°C° 0 mm 1 m/s 750 mmHg 80%
    04:00 0°C° 0 mm 1 m/s 750 mmHg 80%
    05:00 +1°C° 0 mm 1 m/s 749 mmHg 76%
    06:00 +1°C° 0 mm 2 m/s 749 mmHg 71%
    07:00 +2°C° 0 mm 2 m/s 749 mmHg 67%
    08:00 +2°C° 0.3 mm 3 m/s 748 mmHg 67%
    09:00 +3°C° 0.3 mm 4 m/s 748 mmHg 67%
    10:00 +2°C° 0.3 mm 5 m/s 747 mmHg 67%
    11:00 +4°C° 0.4 mm 6 m/s 746 mmHg 63%
    12:00 +6°C° 0.4 mm 7 m/s 745 mmHg 59%
    13:00 +9°C° 0.4 mm 8 m/s 744 mmHg 55%
    14:00 +9°C° 0.2 mm 7 m/s 744 mmHg 54%
    15:00 +10°C° 0.2 mm 7 m/s 743 mmHg 52%
    16:00 +10°C° 0.2 mm 7 m/s 742 mmHg 51%
    17:00 +10°C° 0 mm 6 m/s 742 mmHg 54%
    18:00 +9°C° 0 mm 6 m/s 742 mmHg 58%
    19:00 +8°C° 0 mm 6 m/s 741 mmHg 61%
    20:00 +7°C° 0.3 mm 4 m/s 741 mmHg 70%
    21:00 +7°C° 0.3 mm 3 m/s 741 mmHg 79%
    22:00 +6°C° 0.3 mm 2 m/s 741 mmHg 87%
    23:00 +5°C° 0.5 mm 2 m/s 741 mmHg 90%

    Depois de amanhã, 28 Abril, Domingo

    Tempo Temperatura Precipitação Vento Pressão Humidade
    00:00 +4°C° 0.5 mm 2 m/s 740 mmHg 94%
    01:00 +4°C° 0.5 mm 2 m/s 740 mmHg 97%
    02:00 +2°C° 1.4 mm 3 m/s 740 mmHg 96%
    03:00 +2°C° 1.4 mm 3 m/s 739 mmHg 95%
    04:00 0°C° 1.4 mm 4 m/s 739 mmHg 95%
    05:00 0°C° 2 mm 4 m/s 739 mmHg 95%
    06:00 0°C° 2 mm 3 m/s 739 mmHg 96%
    07:00 0°C° 2 mm 3 m/s 739 mmHg 97%
    08:00 -1°C° 1.2 mm 4 m/s 739 mmHg 97%
    09:00 -1°C° 1.2 mm 5 m/s 740 mmHg 97%
    10:00 -1°C° 1.2 mm 5 m/s 740 mmHg 96%
    11:00 -1°C° 0.2 mm 5 m/s 741 mmHg 95%
    12:00 0°C° 0.2 mm 5 m/s 741 mmHg 94%
    13:00 0°C° 0.2 mm 5 m/s 742 mmHg 93%
    14:00 0°C° 0.1 mm 5 m/s 742 mmHg 90%
    15:00 +1°C° 0.1 mm 5 m/s 743 mmHg 87%
    16:00 +1°C° 0.1 mm 5 m/s 743 mmHg 83%
    17:00 +1°C° 0.1 mm 4 m/s 744 mmHg 83%
    18:00 0°C° 0.1 mm 4 m/s 744 mmHg 83%
    19:00 0°C° 0.1 mm 4 m/s 744 mmHg 82%
    20:00 0°C° 0 mm 3 m/s 745 mmHg 84%
    21:00 -1°C° 0 mm 3 m/s 745 mmHg 86%
    22:00 -4°C° 0 mm 3 m/s 746 mmHg 88%
    23:00 -4°C° 0 mm 3 m/s 746 mmHg 90%

    29 Abril, Segunda-feira

    Tempo Temperatura Precipitação Vento Pressão Humidade
    00:00 -5°C° 0 mm 3 m/s 746 mmHg 91%
    01:00 -6°C° 0 mm 3 m/s 747 mmHg 93%
    02:00 -5°C° 0 mm 2 m/s 747 mmHg 93%
    03:00 -5°C° 0 mm 2 m/s 748 mmHg 93%
    04:00 -6°C° 0 mm 2 m/s 748 mmHg 94%
    05:00 -5°C° 0 mm 2 m/s 749 mmHg 91%
    06:00 -4°C° 0 mm 2 m/s 749 mmHg 88%
    07:00 -3°C° 0 mm 2 m/s 749 mmHg 86%
    08:00 -2°C° 0.1 mm 2 m/s 750 mmHg 81%
    09:00 -1°C° 0.1 mm 2 m/s 750 mmHg 76%
    10:00 +1°C° 0.1 mm 2 m/s 750 mmHg 71%
    11:00 +1°C° 0.2 mm 2 m/s 750 mmHg 67%
    12:00 +2°C° 0.2 mm 2 m/s 750 mmHg 64%
    13:00 +3°C° 0.2 mm 2 m/s 750 mmHg 60%
    14:00 +3°C° 0.3 mm 2 m/s 750 mmHg 60%
    15:00 +2°C° 0.3 mm 3 m/s 750 mmHg 60%
    16:00 +2°C° 0.3 mm 3 m/s 750 mmHg 59%
    17:00 +1°C° 0.2 mm 3 m/s 750 mmHg 65%
    18:00 +1°C° 0.2 mm 3 m/s 750 mmHg 71%
    19:00 +1°C° 0.2 mm 2 m/s 750 mmHg 77%
    20:00 -1°C° 0 mm 2 m/s 751 mmHg 79%
    21:00 -2°C° 0 mm 2 m/s 751 mmHg 82%
    22:00 -3°C° 0 mm 2 m/s 751 mmHg 84%
    23:00 -4°C° 0 mm 2 m/s 751 mmHg 85%

    30 Abril, Terça-feira

    Tempo Temperatura Precipitação Vento Pressão Humidade
    00:00 -4°C° 0 mm 2 m/s 751 mmHg 86%
    01:00 -5°C° 0 mm 2 m/s 751 mmHg 86%
    02:00 -5°C° 0 mm 2 m/s 751 mmHg 87%
    03:00 -5°C° 0 mm 2 m/s 751 mmHg 87%
    04:00 -6°C° 0 mm 2 m/s 751 mmHg 88%
    05:00 -5°C° 0 mm 2 m/s 750 mmHg 84%
    06:00 -4°C° 0 mm 2 m/s 750 mmHg 80%
    07:00 -4°C° 0 mm 3 m/s 750 mmHg 76%
    08:00 -1°C° 0 mm 3 m/s 750 mmHg 69%
    09:00 0°C° 0 mm 3 m/s 750 mmHg 63%
    10:00 +1°C° 0 mm 3 m/s 750 mmHg 56%
    11:00 0°C° 0 mm 4 m/s 750 mmHg 55%
    12:00 0°C° 0 mm 4 m/s 749 mmHg 55%
    13:00 +1°C° 0 mm 4 m/s 749 mmHg 54%
    14:00 +1°C° 0 mm 4 m/s 749 mmHg 54%
    15:00 +1°C° 0 mm 4 m/s 749 mmHg 54%
    16:00 +1°C° 0 mm 4 m/s 749 mmHg 55%
    17:00 +1°C° 0 mm 4 m/s 749 mmHg 59%
    18:00 +1°C° 0 mm 3 m/s 749 mmHg 63%
    19:00 +1°C° 0 mm 3 m/s 748 mmHg 68%
    20:00 0°C° 0 mm 3 m/s 748 mmHg 71%
    21:00 -1°C° 0 mm 3 m/s 748 mmHg 74%
    22:00 -2°C° 0 mm 3 m/s 748 mmHg 78%
    23:00 -2°C° 0 mm 3 m/s 748 mmHg 77%

    1 Maio, Quarta-feira

    Tempo Temperatura Precipitação Vento Pressão Humidade
    00:00 -2°C° 0 mm 3 m/s 748 mmHg 77%
    01:00 -2°C° 0 mm 3 m/s 748 mmHg 77%
    02:00 -2°C° 0 mm 3 m/s 748 mmHg 79%
    03:00 -2°C° 0 mm 3 m/s 748 mmHg 81%
    04:00 -2°C° 0 mm 3 m/s 748 mmHg 83%
    05:00 -2°C° 0 mm 3 m/s 748 mmHg 80%
    06:00 -2°C° 0 mm 4 m/s 747 mmHg 76%
    07:00 -1°C° 0 mm 4 m/s 747 mmHg 72%
    08:00 0°C° 0 mm 4 m/s 747 mmHg 70%
    09:00 +3°C° 0 mm 4 m/s 747 mmHg 68%
    10:00 +3°C° 0 mm 5 m/s 747 mmHg 65%
    11:00 +5°C° 0.1 mm 5 m/s 747 mmHg 62%
    12:00 +6°C° 0.1 mm 5 m/s 747 mmHg 58%
    13:00 +7°C° 0.1 mm 5 m/s 747 mmHg 54%
    14:00 +7°C° 0.1 mm 5 m/s 747 mmHg 56%
    15:00 +7°C° 0.1 mm 5 m/s 747 mmHg 57%
    16:00 +7°C° 0.1 mm 5 m/s 748 mmHg 58%
    17:00 +6°C° 0.1 mm 5 m/s 748 mmHg 63%
    18:00 +5°C° 0.1 mm 4 m/s 748 mmHg 69%
    19:00 +4°C° 0.1 mm 3 m/s 748 mmHg 74%
    20:00 +3°C° 0 mm 3 m/s 748 mmHg 77%
    21:00 +3°C° 0 mm 3 m/s 748 mmHg 80%
    22:00 +2°C° 0 mm 3 m/s 749 mmHg 84%
    23:00 +1°C° 0 mm 4 m/s 749 mmHg 82%
    Mostrar mais